Presure
123 132 139 141 138 159 145 126 126 123 126 131 129 160 163 169 174 131 190 192 179 184 205 150 193 195 211 201 198 189 126 125 187 216 225 234 237 120 237 143 205 134 232
135 126 117 115 149 100 119 129 109 121 123 124 119 124 131 168 181 184 187 181 194 165 158 212 194 184 183 192 201 135 127 156 142 215 237 244 240 240 237 172 217 206 136
131 106 105 114 112 124 117 110 123 118 143 158 131 150 168 161 178 183 187 190 194 168 182 211 193 181 199 189 139 206 213 212 136 244 237 241 240 115 239 238 228 246 233
136 124 119 109 91 117 124 126 126 133 118 125 127 139 164 153 137 188 172 142 190 204 220 118 194 191 125 197 200 199 197 133 140 247 132 241 239 236 239 236 238 243 245
142 120 80 122 116 123 129 131 128 122 127 162 180 182 128 131 182 192 187 158 192 185 212 203 193 195 198 126 128 186 202 254 210 142 250 241 230 215 215 222 136 219 227
177 118 145 97 153 136 137 138 135 175 168 179 179 185 178 176 189 188 188 83 218 214 127 126 187 189 193 192 194 134 205 250 119 221 221 217 215 220 218 217 210 215 215
142 144 150 175 128 167 153 160 166 173 180 181 185 180 181 188 186 183 210 218 213 191 199 135 170 192 191 178 195 199 235 245 242 228 229 226 221 224 224 176 213 218 219
164 153 132 142 154 180 181 179 178 174 185 183 180 189 191 182 206 202 152 137 130 125 193 194 192 191 194 199 195 207 214 238 239 226 220 227 219 213 220 99 218 220 217
175 82 177 93 87 180 166 185 188 182 179 188 194 181 201 207 148 134 131 151 198 193 195 190 190 195 194 196 208 209 231 235 228 222 217 219 220 215 217 218 216 220 221
180 148 183 187 142 188 174 192 191 195 193 133 176 207 208 123 135 182 196 196 188 200 200 191 191 191 194 205 214 228 235 228 223 219 216 213 211 214 214 217 220 212 222
195 191 188 193 199 162 200 125 80 179 205 210 206 210 203 214 213 198 194 188 194 191 189 195 196 201 202 204 224 228 225 222 218 216 219 209 193 211 213 218 221 225 225
85 197 203 201 88 134 200 204 174 96 207 212 209 203 216 216 200 193 193 195 193 198 199 201 202 202 204 224 228 227 223 220 217 212 219 204 208 214 218 222 224 225 227
208 210 148 214 77 215 215 218 92 219 172 211 216 216 207 197 206 194 194 198 201 196 196 202 204 219 229 230 229 226 221 219 213 207 208 210 215 216 225 230 231 233 235
219 217 195 225 152 227 205 79 189 207 221 206 195 198 192 193 195 200 198 196 196 200 204 222 232 233 229 226 226 224 221 212 214 215 215 224 224 234 239 237 239 234 249
236 190 205 226 222 200 219 214 82 202 200 199 192 194 198 198 195 195 200 204 206 229 232 232 229 230 225 219 215 216 218 217 215 224 234 244 251 251 264 255 263 261 255
227 211 224 207 202 138 202 198 196 194 193 198 199 200 201 202 210 211 217 235 234 235 232 222 217 216 215 214 216 211 232 217 231 257 264 270 267 263 269 255 255 263 283
202 203 201 199 195 195 174 199 200 201 202 203 205 208 206 208 227 239 238 236 227 219 213 213 211 210 219 216 231 238 239 260 302 268 265 267 279 278 261 253 302 287 269
216 212 213 215 219 217 215 216 218 220 220 223 231 242 244 243 239 233 224 219 220 220 218 213 209 226 237 268 285 288 310 288 271 275 278 282 274 258 279 279 260 301 278
233 234 228 219 217 241 234 240 243 247 251 252 250 248 241 227 210 206 222 225 226 234 242 263 284 281 280 290 272 291 285 267 273 288 264 263 280 271 276 261 271 284 272
264 262 262 258 258 258 256 255 249 238 226 221 216 213 209 233 228 233 243 248 266 295 281 279 272 283 269 293 263 269 276 261 264 279 263 267 272 267 260 281 266 295 270
226 225 237 242 243 244 244 243 241 240 238 243 247 248 252 254 277 292 293 283 300 288 293 271 281 261 280 263 271 262 277 270 255 267 270 271 258 266 261 274 263 272 275
248 249 252 257 256 254 255 257 261 268 282 289 308 300 296 292 293 296 276 305 300 286 283 287 278 270 276 261 268 276 274 278 260 259 276 264 270 264 274 273 284 286 280
267 271 273 345 353 361 361 360 359 368 364 343 334 331 313 314 307 304 319 297 287 289 295 283 280 274 274 271 271 276 277 264 268 267 275 282 276 280 274 277 293 282 283
357 355 352 351 348 346 346 346 343 344 345 343 336 342 363 367 308 321 294 293 297 297 293 289 283 282 276 273 272 272 293 273 274 285 275 290 279 282 277 287 291 295 368
336 337 336 339 359 373 378 373 382 374 373 349 346 334 329 329 325 335 349 345 323 347 320 297 288 283 281 306 326 302 297 288 284 281 293 291 293 285 291 294 379 388 384
371 371 372 372 370 370 368 366 365 372 375 362 358 353 358 356 361 348 344 336 341 356 357 347 336 329 332 317 323 315 320 318 276 299 316 307 302 303 364 420 393 347 334
Wind_Speed
43 47 48 52 48 58 49 50 52 54 56 58 58 63 63 61 61 60 57 55 59 57 55 70 56 57 55 60 62 65 52 53 71 65 64 63 63 74 62 68 65 75 60
49 47 45 51 55 45 50 55 51 59 60 61 55 60 67 64 63 61 61 64 60 68 74 58 61 63 66 66 66 54 55 60 64 65 65 64 65 64 64 72 64 65 76
48 49 42 50 53 55 54 56 62 50 70 69 71 72 69 71 67 66 65 67 67 72 68 64 67 69 68 72 59 71 73 65 65 65 66 64 65 74 63 63 64 58 63
61 59 56 52 48 57 60 62 67 70 64 70 71 77 74 77 71 72 70 80 72 70 65 55 72 74 60 76 75 77 78 69 74 65 68 64 62 61 60 59 56 53 54
70 55 38 62 58 65 68 70 73 72 75 81 78 77 73 78 77 78 76 79 76 76 70 73 76 77 77 68 70 81 83 62 69 80 60 59 60 68 69 67 68 68 62
83 58 75 42 76 73 77 78 79 83 85 84 83 83 82 82 85 83 82 38 74 73 70 71 83 83 82 83 84 60 85 64 68 70 66 66 68 67 69 70 75 74 70
75 76 79 86 59 83 84 87 88 88 90 89 90 88 88 90 89 88 84 79 77 81 80 83 84 85 87 82 89 89 78 67 63 67 65 66 69 69 68 69 74 72 75
91 90 73 77 88 90 92 91 91 91 94 94 93 95 94 94 91 91 88 79 82 77 87 87 88 91 91 92 93 93 88 72 68 70 72 69 73 76 73 60 76 75 75
100 30 95 44 27 94 88 97 96 96 96 98 97 93 94 93 91 86 85 84 87 90 91 91 93 94 95 96 97 95 85 77 76 76 78 77 78 81 81 80 82 80 79
106 88 104 104 73 102 94 101 100 99 99 88 96 97 97 75 92 95 94 93 96 93 92 95 96 98 100 100 99 93 84 83 83 83 83 84 86 88 89 88 88 88 87
105 107 108 108 108 85 106 77 37 99 103 103 101 101 99 99 97 97 99 100 98 99 100 101 103 103 103 104 100 92 91 89 89 90 90 92 92 94 96 96 97 97 95
25 104 108 109 41 69 109 109 91 54 106 106 103 102 103 102 101 103 103 103 104 105 106 107 107 108 107 105 100 96 96 94 94 97 96 100 100 101 103 104 105 105 105
109 112 76 116 31 113 113 113 49 108 107 106 106 104 104 105 105 107 108 109 110 110 110 113 114 113 106 103 101 100 101 101 102 103 106 107 107 108 111 112 113 113 112
115 115 102 118 75 113 110 44 107 108 109 107 107 107 109 110 111 113 113 113 116 118 120 120 114 109 106 106 107 106 106 107 108 110 113 114 114 120 118 117 116 116 115
117 94 104 118 116 111 115 113 53 111 110 111 111 114 116 116 116 117 120 122 123 119 115 113 112 113 110 109 113 113 113 113 114 117 124 124 118 118 111 115 111 112 114
121 114 118 113 112 85 115 114 115 114 115 116 118 119 122 123 127 125 128 120 116 115 115 113 116 117 116 118 119 119 122 119 124 122 115 107 107 108 101 105 110 112 103
116 116 116 117 116 118 106 119 121 122 124 125 125 127 127 130 130 122 119 117 116 116 120 120 121 124 127 123 126 130 128 119 100 103 105 106 98 97 103 106 98 97 102
124 124 125 125 127 127 128 129 130 130 132 133 134 128 125 123 122 120 121 123 122 122 122 125 129 130 134 125 117 107 99 96 97 99 101 99 99 99 91 94 99 92 96
136 136 134 127 128 134 134 134 133 130 128 126 125 124 125 122 124 128 126 125 128 130 135 130 120 116 109 105 105 106 103 100 103 106 103 101 109 105 99 93 101 101 96
124 126 127 128 127 127 126 124 123 122 122 127 126 125 127 130 128 128 134 136 135 115 120 113 113 112 110 103 110 109 105 107 106 108 108 109 111 104 97 107 100 109 104
122 123 124 125 125 126 125 125 126 126 128 130 136 136 135 138 126 123 119 120 111 111 108 112 103 111 106 110 115 110 115 118 105 112 118 115 106 113 103 117 105 111 115
130 130 132 135 136 136 136 138 139 141 139 135 120 124 124 122 122 113 119 119 109 111 115 112 113 112 110 111 112 117 115 117 112 113 121 119 121 111 122 115 125 125 120
145 145 144 107 105 101 101 101 101 99 101 111 113 112 116 117 122 122 109 115 115 115 116 114 112 115 117 116 116 115 120 114 120 122 126 126 120 125 117 119 127 117 118
89 91 92 94 97 99 100 100 101 100 100 102 107 108 100 106 111 119 114 115 120 120 118 117 113 116 119 118 119 123 125 126 126 130 122 130 123 126 118 127 128 135 112
90 91 92 93 85 79 74 80 73 77 78 92 98 107 107 107 107 107 109 113 118 111 116 124 123 126 126 128 122 131 132 131 131 128 138 134 129 120 130 133 106 94 86
71 72 73 74 75 76 78 80 81 79 81 85 88 91 90 91 89 95 102 107 108 101 98 104 112 113 114 115 118 122 124 129 116 128 136 134 134 135 114 88 88 93 93
Wind_Direction
267 273 277 277 277 273 280 282 283 283 287 288 289 277 276 279 283 292 295 293 283 285 296 285 287 286 280 279 279 279 264 264 277 284 286 286 284 257 281 268 270 253 274
272 270 271 278 275 267 280 284 281 285 287 288 287 287 291 278 286 289 292 286 294 287 282 292 288 283 283 284 284 272 270 278 277 286 288 283 281 281 280 267 275 273 250
268 276 273 274 279 280 279 284 284 276 281 284 287 285 278 277 283 289 292 294 295 283 286 292 290 283 289 285 276 293 296 288 278 283 283 281 279 261 279 278 278 275 275
275 271 271 278 271 280 280 282 281 281 285 286 286 283 279 277 290 292 280 285 293 295 292 266 290 290 279 290 292 292 294 279 279 283 265 277 276 277 277 276 279 279 278
274 273 270 278 279 280 281 280 281 283 283 276 283 285 290 289 288 293 292 280 293 290 291 290 290 291 291 280 279 290 295 293 284 279 278 275 275 278 278 275 271 275 276
273 273 275 275 275 280 281 280 281 280 279 284 286 289 287 286 292 293 293 268 295 292 283 283 289 289 290 290 290 281 295 293 273 285 283 279 276 274 273 272 275 275 274
275 275 272 277 278 278 277 278 280 284 287 287 289 288 288 290 290 289 295 294 292 288 288 285 288 289 289 288 291 292 297 293 287 280 280 276 274 275 275 272 271 272 274
273 277 283 280 278 282 283 282 282 283 285 286 285 287 288 287 292 291 280 284 284 284 287 287 288 288 289 290 289 291 293 293 289 283 281 282 276 274 276 253 274 276 272
274 287 274 278 273 278 278 280 280 280 280 283 285 285 289 290 281 283 284 286 287 287 287 287 287 288 288 288 291 291 294 292 288 284 282 282 281 278 278 278 276 278 279
275 271 280 279 275 277 279 279 279 281 282 282 285 289 288 281 284 285 286 286 285 287 287 286 287 286 288 290 292 293 292 290 288 285 282 282 281 281 281 280 279 276 280
272 274 276 278 280 281 280 283 306 283 286 288 286 287 286 289 287 285 285 284 286 286 286 287 287 288 288 289 291 291 290 288 287 286 285 282 280 282 281 282 282 282 280
271 275 276 277 266 280 281 283 286 284 286 286 286 286 288 288 285 285 285 286 286 287 287 287 287 287 288 291 290 289 287 286 285 284 284 282 282 282 283 283 283 283 282
276 278 270 281 284 282 283 284 281 282 279 285 286 286 286 284 286 285 286 287 287 286 286 287 287 290 289 288 287 286 285 284 283 283 282 282 283 283 284 284 282 282 282
278 279 280 281 284 281 278 286 279 282 284 283 283 284 284 284 284 286 286 286 286 286 287 289 289 288 288 287 287 285 284 283 284 283 282 284 284 283 281 281 280 280 278
276 278 277 278 280 278 281 281 286 282 282 282 282 282 283 283 283 284 284 285 286 287 287 286 286 287 285 283 283 283 284 283 283 285 285 283 282 280 277 277 273 273 273
275 276 276 277 278 278 279 279 279 279 280 281 282 282 283 283 284 284 285 284 284 284 284 283 283 283 284 284 283 282 284 282 286 283 281 278 276 277 273 272 274 275 269
276 276 276 276 277 277 278 277 278 279 279 280 280 281 282 282 283 283 283 282 282 281 281 282 282 282 283 281 284 284 283 281 274 276 277 276 275 272 271 273 275 267 266
276 276 277 277 278 277 278 279 279 280 280 280 281 281 281 281 282 282 281 281 281 281 280 280 280 282 282 279 278 278 270 274 274 274 275 277 275 272 279 276 273 285 271
275 275 276 277 277 276 277 278 278 279 280 280 281 281 281 278 276 278 279 279 280 281 282 281 279 279 281 279 280 282 280 281 281 279 282 280 285 284 286 273 284 287 280
274 275 275 276 276 276 277 277 278 277 276 277 276 276 276 278 277 279 281 281 281 278 280 279 279 277 280 269 281 281 278 281 281 276 282 281 284 283 281 284 283 287 284
274 274 276 277 276 276 276 276 275 276 276 277 279 279 279 280 277 276 275 278 275 276 269 276 273 278 274 278 276 280 277 274 282 281 280 278 283 283 283 285 283 287 286
276 276 277 278 278 278 278 279 279 279 278 278 272 273 276 276 274 275 276 274 272 271 272 270 274 274 273 276 274 273 274 271 276 279 276 277 279 281 282 284 286 284 283
275 276 277 274 273 272 272 272 271 269 266 267 270 268 269 269 272 271 268 269 272 270 270 271 272 272 273 276 275 275 271 276 274 276 277 276 277 278 281 284 283 284 284
275 274 273 273 273 273 272 272 271 271 270 268 267 266 267 267 269 266 270 272 272 272 272 270 272 273 274 274 276 277 269 272 273 272 276 276 277 280 280 282 284 284 283
276 276 276 276 274 274 271 271 266 265 264 266 267 268 268 267 268 267 266 265 267 266 266 267 270 271 272 269 266 266 267 269 269 272 272 275 275 278 280 281 280 276 273
278 278 278 278 276 275 274 273 272 270 267 267 266 267 264 263 259 258 261 265 266 265 263 265 267 267 266 267 267 267 266 265 272 270 270 271 273 275 277 274 272 274 274